Find Hai Yang 4-01

NORAD ID: 61936 Int'l Des: 2024-208 Owner: GYZ/CASC Country: CN operational
LEOCIRCULARRETROGRADESSO

Current View

Loading 3D Globe...

About Hai Yang 4-01

Description loading...

Upcoming Passes

Passes for default location (London). Set your location on the main map for personalized predictions.

Altitude History

Loading altitude history...

Two-Line Element Set

1 61936U 24208A 26150.60218735 -.00000038 00000-0 18526-5 0 9996
2 61936 98.0031 158.6006 0001180 134.9525 225.1779 14.73279276 82857
Epoch: May 30, 2026 • Age: 8 hours

Current Status

Altitude 653.5 km
Velocity 7.53 km/s
Sub-Earth Point 19.77°N, 72.78°W
Launch Date Nov 13, 2024
Age 1.5 years
Type other

Technical Details

Classification Payload
Mass 1500.00 kg
Dry Mass 1500.00 kg
Total Mass 1500.00 kg
Length 1.00 m
Diameter 1.00 m
Span 4.00 m
Shape Box + 2 Pan
Manufacturer CAST
Bus Type CAST-968
Phase Status In Orbit
Owner/State GYZ/CASC/CN

Most Searched